Regional Weather Roundup
Issued by NWS

Home | Current Version | Previous Version | Graphics & Text | Print | Product List | Glossary Off
Versions: 1 2 3 4 5 6 7 8 9 10 11 12 13 14 15 16 17 18 19 20 21 22 23 24 25 26 27 28 29 30 31 32 33 34 35 36 37 38 39 40 41 42 43 44 45 46 47 48 49 50

000
ASUS43 KDMX 270901
RWRIA

WEATHER ROUNDUP FOR IOWA
NATIONAL WEATHER SERVICE DES MOINES IA
400 AM CDT SUN MAY 27 2018

NOTE: "FAIR" INDICATES FEW OR NO CLOUDS BELOW 12,000 FEET WITH NO
SIGNIFICANT WEATHER AND/OR OBSTRUCTIONS TO VISIBILITY.

* - THESE STATIONS ARE NOT NWS STATIONS...THUS NOT UNDER NWS
QUALITY CONTROL.  THEY ALSO DO NOT REPORT WEATHER SUCH
AS PRECIPITATION OR FOG.

IAZ001>003-012>014-020>022-031>034-043>046-271000-
   NORTHWEST IOWA

CITY           SKY/WX    TMP DP  RH WIND       PRES   REMARKS
CARROLL *      CLEAR     64  54  68 CALM      29.80R
DENISON *      CLEAR     64  57  77 CALM      29.82R
LE MARS *      CLEAR     64  59  82 CALM      29.78S
ORANGE CITY *  CLEAR     73  52  46 E3        29.79S
SHELDON *      CLEAR     68  52  56 SE6       29.78S
SIOUX CITY     CLEAR     69  56  62 E7        29.77S
SPENCER        CLEAR     62  59  90 CALM      29.80S
STORM LAKE *   CLEAR     75  50  41 SE7       29.81R
$$

IAZ055>058-069>071-079>083-090>094-271000-
   SOUTHWEST IOWA

CITY           SKY/WX    TMP DP  RH WIND       PRES   REMARKS
ATLANTIC *     CLEAR     63  59  88 N5        29.80S
AUDUBON *      CLEAR     63  57  82 CALM      29.81S
CLARINDA *       N/A     66  63  88 CALM      29.82R
COUNCIL BLFS * PTCLDY    73  61  64 S6        29.80R
CRESTON *      CLEAR     72  68  88 S5        29.82S
HARLAN  *      CLEAR     64  61  88 CALM      29.83S
LAMONI         CLEAR     71  68  90 S6        29.81R
RED OAK *      CLEAR     66  59  77 CALM      29.79S
SHENANDOAH *   CLEAR     70  63  78 CALM      29.80R
$$

IAZ047>049-059>061-072>074-084-271000-
   CENTRAL IOWA

CITY           SKY/WX    TMP DP  RH WIND       PRES   REMARKS
AMES           CLEAR     66  64  93 SE3       29.79R
ANKENY *       CLEAR     66  64  94 CALM      29.80R
BOONE *        CLEAR     70  61  73 SW3       29.79R
CHARITON *     CLEAR     73  68  83 SW7       29.80S
DES MOINES     CLEAR     74  68  81 CALM      29.78R
GRINNELL*      CLEAR     69  65  87 S5        29.81S
KNOXVILLE *    CLEAR     72  66  83 S5        29.78S
MARSHALLTOWN   CLEAR     70  68  93 S3        29.78S
NEWTON *       CLEAR     72  66  83 CALM      29.79S
PELLA *        CLEAR     72  66  83 S3        29.80S
$$

IAZ004>006-015-016-023>025-035-036-271000-
   NORTH CENTRAL IOWA

CITY           SKY/WX    TMP DP  RH WIND       PRES   REMARKS
ALGONA *       CLEAR     70  57  64 S7        29.80S
CLARION *      CLEAR     68  61  77 CALM      29.80S
ESTHERVILLE    CLEAR     64  58  80 SW5       29.80R
FORT DODGE *   CLEAR     63  60  90 CALM      29.80R
MASON CITY     CLEAR     64  58  80 CALM      29.81R
FOREST CITY *  FAIR      61  61 100 CALM      29.80S
IOWA FALLS *   FAIR      67  65  93 CALM      29.81R
$$

IAZ007>011-017>019-026>030-037>042-050>054-066-271000-
   NORTHEAST IOWA

CITY           SKY/WX    TMP DP  RH WIND       PRES   REMARKS
CEDAR RAPIDS   FAIR      71  68  90 S5        29.79S
CHARLES CITY * FAIR      68  64  88 S5        29.80S
CLINTON *        N/A     67  66  97 E3        29.82R FOG
DECORAH *      FAIR      72  66  83 CALM      29.79S
DUBUQUE        FAIR      68  64  87 SW3       29.82S
MONTICELLO *   MOCLDY    72  68  88 CALM      29.80S
OELWEIN *      FAIR      70  66  88 SE6       29.80S
WATERLOO       FAIR      65  65 100 E3        29.78R
$$

IAZ064-065-067-068-078-271000-
   EAST CENTRAL IOWA

CITY           SKY/WX    TMP DP  RH WIND       PRES   REMARKS
DAVENPORT      FAIR      67  64  90 S6        29.83R
IOWA CITY      FAIR      71  68  90 CALM      29.81S
MUSCATINE *    MOCLDY    68  66  94 CALM      29.82R
QUAD CITIES    FAIR      67  65  93 CALM      29.81R
$$

IAZ062-063-075>077-085>089-095>099-271000-
   SOUTHEAST IOWA

CITY           SKY/WX    TMP DP  RH WIND       PRES   REMARKS
BURLINGTON     CLEAR     68  66  93 S3        29.82R
FAIRFIELD *    CLEAR     72  64  78 S5        29.81R
FORT MADISON * CLEAR     68  66  94 S5        29.83S
KEOKUK *       CLEAR     72  70  94 SW6       29.81S
OSKALOOSA *    FAIR      69  66  89 S6        29.80S
CENTERVILLE *    N/A     70  68  94 CALM      29.83R
OTTUMWA        CLEAR     70  66  87 S6        29.80R
WASHINGTON *   CLEAR     70  70 100 S7        29.82R
$$

ABBREVIATIONS USED IN REMARKS
   TC - TEMPERATURES IN CELSIUS
  WCI - WIND CHILL INDEX
   HX - HEAT INDEX
  VSB - VISIBILITY
$$




USA.gov is the U.S. government's official web portal to all federal, state and local government web resources and services.